Regional Weather Roundup
Issued by NWS Wakefield, VA

Home | Current Version | Previous Version | Text Only | Print | Product List | Glossary Off
Versions: 1 2 3 4 5 6 7 8 9 10 11 12 13 14 15 16 17 18 19 20 21 22 23 24 25 26 27 28 29 30 31 32 33 34 35 36 37 38 39 40 41 42 43 44 45 46 47 48 49 50

623
ASUS41 KAKQ 240115
RWRAKQ

REGIONAL WEATHER ROUNDUP
NATIONAL WEATHER SERVICE WAKEFIELD VA
900 PM EDT TUE MAY 23 2017

Note: "fair" indicates few or no clouds below 12,000 feet with no
significant weather and/or obstructions to visibility. * = Denotes
station may not report precipitation (e.g., rain,snow,etc.),
thunder or fog.

VAZ042-051-052>054-056-240200-
NORTHERN VIRGINIA

CITY           SKY/WX    TMP DP  RH WIND       PRES   REMARKS
WASH NATIONAL  LGT RAIN  60  57  89 NE5       29.81F
DULLES         LGT RAIN  61  59  93 E6        29.79F FOG
FORT BELVOIR   LGT RAIN  61  59  93 CALM      29.79F
QUANTICO       LGT RAIN  62  60  93 E9        29.79F
FREDERICKSBRG* RAIN      60  60 100 NE6       29.77F
STAFFORD*      LGT RAIN  59  59 100 NE7       29.82F
WARRENTON      LGT RAIN  62  58  87 NE5       29.78F
CULPEPER*      LGT RAIN  61  61  99 NE5       29.78F
MANASSAS*      LGT RAIN  60  59  96 E3        29.79F
LEESBURG*      LGT RAIN  61  61 100 NE3       29.81F
WINCHESTER     LGT RAIN  55  54  94 CALM      29.80F
FRONT ROYAL*   CLOUDY    57  57 100 CALM      29.79F
LURAY*         DRIZZLE   59  57  94 N7        29.78F
$$

VAZ048-049-060>072-079>083-240200-
CENTRAL AND SOUTH CENTRAL VIRGINIA

CITY           SKY/WX    TMP DP  RH WIND       PRES   REMARKS
RICHMOND       LGT RAIN  60  60 100 NE8       29.74F FOG
CHESTERFIELD*  NOT AVBL
PETERSBURG*    LGT RAIN  61  60  97 NE9       29.73F
HANOVER        LGT RAIN  60  57  89 VRB5      29.76F FOG
TAPPAHANNOCK*  LGT RAIN  60  60 100 N6        29.77F
QUINTON*       CLOUDY    60  60 100 CALM      29.74F
CHARLOTTSVILLE LGT RAIN  61  59  93 N5        29.76F FOG
GORDONSVILLE*  CLOUDY    59  59 100 N5        29.75F FOG
ORANGE*        RAIN      59  59 100 NE3       29.76F
LOUISA*        DRIZZLE   64  63  94 CALM      29.74F
BUMPASS*       CLOUDY    60  60 100 W5        29.76F
FARMVILLE*     CLOUDY    63  60  90 NE8       29.71F
CREWE*         CLOUDY    62  58  86 NE3       29.72F
FORT PICKETT*  CLOUDY   N/A N/A N/A NE8       29.72S
CHASE CITY*    CLOUDY    62  60  94 NE3       29.71S
CLARKSVILLE*   CLOUDY    63  63 100 E6        29.71R
SOUTH HILL*    CLOUDY    61  61 100 NE5       29.75F
LAWRENCEVILLE* CLOUDY    62  61  97 NE9       29.70F
EMPORIA*       RAIN      61  61 100 N5        29.72F
$$

VAZ088>098-240200-
SOUTHEAST VIRGINIA

CITY           SKY/WX    TMP DP  RH WIND       PRES   REMARKS
NORFOLK        RAIN      61  60  97 NE16      29.70F FOG
VIRGINIA BEACH LGT RAIN  60  58  92 N12       29.69F FOG
NORFOLK NAVAL  LGT RAIN  63  60  90 NE10      29.72F FOG
WEST POINT*    CLOUDY    61  60  97 N5        29.75F
SALUDA*        CLOUDY    61  61 100 NE6       29.74F
NEWPORT NEWS   LGT RAIN  62  60  93 NE12      29.72F
LANGLEY AFB    LGT RAIN  61  61 100 NE14      29.71F
FORT EUSTIS    LGT RAIN  62  61  94 E12       29.69F FOG
WILLIAMSBURG*  CLOUDY    64  64 100 CALM      29.73F
HR EXEC AP*    CLOUDY    64  59  82 NE10      29.69F
FRANKLIN*      RAIN      61  60  96 NE8       29.70F
US460-WAKEFLD  RAIN      62  62 100 VRB5      29.71F FOG
$$

VAZ020-022-025-037-045-240200-
WEST CENTRAL AND SOUTHWEST VIRGINIA

CITY           SKY/WX    TMP DP  RH WIND       PRES   REMARKS
STAUNTON*      LGT RAIN  57  56  98 NE8       29.79F
WAYNESBORO*    CLOUDY    56  56 100 N8        29.77F
HOT SPRINGS VA RAIN      52  48  87 E12G18    29.79F VSB<1/4
LYNCHBURG      CLOUDY    59  58  96 NE10      29.74F
DANVILLE       CLOUDY    62  62 100 E7        29.71F
SOUTH BOSTON*  CLOUDY    62  61  96 CALM      29.71S
MARTINSVILLE   RAIN      58  57  96 NW3       29.75F
ROANOKE        RAIN      58  58 100 N5        29.77R FOG
BLACKSBURG     RAIN      57  55  95 NE6       29.77F
DUBLIN*        RAIN      57  55  91 E5        29.76F
MARION*        LGT RAIN  57  55  91 E8        29.77R
HILLSVILLE*    HVY RAIN  55  51  86 CALM      29.76R
RICHLANDS*     DRIZZLE   57  57 100 CALM      29.73S
WISE*          DRIZZLE   61  61 100 CALM      29.71F
ABINGDON*      DRIZZLE   62  62  99 E6        29.71S
$$

MDZ021>025-VAZ099-100-240200-
SOUTHERN MARYLAND AND THE DELMARVA PENINSULA

CITY           SKY/WX    TMP DP  RH WIND       PRES   REMARKS
PATUXENT RIVER LGT RAIN  59  59 100 NE9       29.78F FOG
BAY BRIDGE APT CLOUDY    61  54  77 E5        29.81F
LEONARDTOWN    CLOUDY    57  55  94 NE3       29.80F
DOVER          CLOUDY    60  60 100 E5        29.80F
GEORGETOWN     LGT RAIN  57  55  93 E6        29.81F
EASTON         CLOUDY    59  54  82 E5        29.84F
CAMBRIDGE      NOT AVBL
SALISBURY      LGT RAIN  56  56 100 NE10      29.79F
OCEAN CITY     RAIN      57  55  93 NE8       29.81F
WALLOPS ISLAND RAIN      57  57 100 N13       29.76F
ACCOMACK*      LGT RAIN  59  43  55 NE7       29.75F
$$

NCZ012>017-030>032-240200-
NORTH CENTRAL AND EASTERN NORTH CAROLINA

CITY           SKY/WX    TMP DP  RH WIND       PRES   REMARKS
ROANOKE RAPIDS RAIN      63  63 100 N3        29.69F
RALEIGH        CLOUDY    67  66  97 NE6       29.68F
ELIZABETH CITY LGT RAIN  67  67 100 N10       29.67F
AHOSKIE*       LGT RAIN  63  62  98 N9        29.68F
EDENTON*       CLOUDY    72  70  93 SW10      29.68S
CURRITUCK*     LGT RAIN N/A N/A N/A N3        29.68F
KILL DEVIL HLS RAIN      70  70 100 CALM      29.67F
MANTEO         RAIN      72  70  93 SW18      29.69S
CAPE HATTERAS  LGT RAIN  73  68  84 SW18G30   29.72F
TARBORO*       NOT AVBL
GOLDSBORO      MOCLDY    70  70 100 S8        29.66F
WASHINGTON     CLOUDY    69  68  96 SW10      29.69S
GREENVILLE     CLOUDY    70  70 100 SW9G17    29.71F
NEW BERN       LGT RAIN  69  69 100 S8        29.72F
WILMINGTON     RAIN      71  70  96 SW8       29.74F
$$

VAZ048-240200-
ELSEWHERE

CITY           SKY/WX    TMP DP  RH WIND       PRES   REMARKS
HARRISBURG PA  CLOUDY    63  53  70 E3        29.81S
BALTIMORE      LGT RAIN  60  60 100 CALM      29.80F
ANNAPOLIS      CLOUDY    64  58  80 E5        29.80F
ANDREWS AFB    CLOUDY    58  53  86 E6        29.79F
PHILADELPHIA   CLOUDY    63  52  67 E6        29.83F
HENDERSON NC   CLOUDY    60  59  96 NE6       29.70F
GREENSBORO     LGT RAIN  62  62 100 NE8       29.70F FOG
ROCKY MOUNT    LGT RAIN  66  66 100 N6        29.68F
$$

VAZ100-240200-
MARINE

STATION/POSITION TIME  TEMP    WIND        PRES    WAVE   SWELL
                       AIR SEA DIR/SP/G            HT/PER HT/PER
                 (UTC) (F)     (DEG/KT/KT) (MB)    (FT/S) (FT/S)
CAPE MAY NJ      0036   58 60   50/  4/  5 1009.9R
LEWES DE         0036   58 63   90/  9/ 10 1009.8F
15NM E FENWICK I 0050   56 56   20/ 10/ 14 1009.7S   3/ 6   2/ 6
WACHAPREAGUE VA  0036   59 65   30/ 13/ 19 1006.9F
THOMAS POINT MD  0100   63 65   90/ 11/ 12   N/A
GOOSES REEF MD   0100   62 58   60/ 12/ 14 1009.2    1/ 2
COVE POINT MD    0036   59      70/  8/ 10 1009.6F
SOLOMONS ISLAND  0036   59 67   40/  5/  7   N/A
BISHOPS HEAD MD  0036   59 66   50/ 12/ 14 1008.8F
PINEY POINT MD   0048           60/  7/  9   N/A
POTOMAC MD       0100   62 66   60/ 14/ 16 1006.8    1/ 2
CAMBRIDGE MD     0036   61 68                N/A
LEWISETTA VA     0036   62 68   60/ 10/ 15 1007.8F
RAPPAHANNOCK LGT 0048           40/ 15/ 17 1007.6F
STINGRAY PT      0050   62      80/ 16/ 17 1007.3F
YORK RVR RNG VA  0036   62      70/ 17/ 19 1006.2F
YORKTOWN VA      0036   63 69  240/  3/  7 1006.3F
JAMESTOWN VA     0100   62 72   60/  6/ 10   N/A
DOMINION TERM VA 0036   62      40/  6/ 11 1006.4F
KIPTOPEKE VA     0048      66   50/  8/ 14   N/A
CHES BAY BRIDGE  0048   62 64   30/ 16/ 19 1005.9F
CAPE HENRY VA    0048   60      20/ 18/ 21   N/A
WILLOUBY STN VA  0036   62      40/ 18/ 21 1006.0F
S CRANEY ISL VA  0036   63      50/ 14/ 16 1005.9F
CAPE HENRY BUOY  0042      62                N/A     3/ 4
1ST LANDING BUOY 0100   62 64              1006.1    2/ 3
CAPE CHARLES BUO 0051      62                N/A     3/ 4
64NM E OF VA BCH 0050   68 66  210/  6/  6 1005.8F   4/ 7   3/ 7
DUCK PIER NC     0048   70 62  220/ 10/ 12 1004.4F
44100 DUCK FRF   0035      65                N/A     4/ 6   2/11
44056 DUCK FRF   0030      65                N/A     3/ 5   2/13
OREGON INLET NC  0048          210/ 25/ 31   N/A
HATTERAS NC      0048   71 74  220/ 15/ 23 1006.3F
DIAMOND SHLS NC  0050   75 75  240/ 19/ 25 1006.6F   6/ 7   2/11
CAPE LOOKOUT NC  0100   74     230/ 11/ 18 1006.5F
$$




USA.gov is the U.S. government's official web portal to all federal, state and local government web resources and services.